{"data":{"norad_id":67278,"intl_designator":"2025-313AG","name":"2025-313AG","alt_names":[],"object_type":"PAYLOAD","status":"ACTIVE","operator":null,"country":"TBD","launch_date":"2025-12-28","launch_site_code":"VOSTO","launch_vehicle":null,"mission":null,"orbit_class":"UNKNOWN","rcs_meters":null,"size_class":null,"mass_kg":null,"dimensions":null,"purposes":[],"wikipedia_slug":null,"has_3d_model":false,"image_url":null,"decayed_at":null,"tle_current":{"epoch":"2026-05-25T03:28:27.459264Z","epoch_age_seconds":55931,"freshness":"FRESH","line1":"1 67278U 25313AG  26145.14476226  .00006419  00000+0  28023-3 0  9991","line2":"2 67278  97.3902 220.0802 0016407  88.9498 271.3618 15.22350318 22451","mean_motion":15.22350318,"eccentricity":0.0016407,"inclination_deg":97.3902,"raan_deg":220.0802,"arg_perigee_deg":88.9498,"mean_anomaly_deg":271.3618,"bstar":0.00028023,"rev_number":2245,"period_min":94.590580300322,"perigee_km":487.47054301412,"apogee_km":510.03637136034,"semimajor_km":6876.8904571872,"source":"CELESTRAK","updated_at":"2026-05-25T13:38:06.852486Z"}}}